Location: Chiroubles
(46.1812°N, 4.6660°E)
Time: 02:45:42
(UTC+00:00)

Cosmos 2219 Rocket - Pass Details

Date: 15 August 2020
Orbit: 826 x 848 km, 71.0° (Epoch: 27 September)

Event Time Altitude Azimuth Distance (km) Brightness Sun altitude
Rises 21:35:13 0° 336° (NNW) 3,417 6.7 -23.3°
Reaches altitude 10° 21:37:47 10° 343° (NNW) 2,480 5.6 -23.6°
Maximum altitude 21:43:16 47° 57° (ENE) 1,115 2.7 -24.1°
Enters shadow 21:44:23 42° 89° (E) 1,202 2.7 -24.2°
